Location: Clyde
(45.1830°S, 169.3170°E)
Time: 13:55:23
(UTC+13:00)

Cosmos 2181 Rocket - Pass Details

Date: 24 January 2019
Orbit: 952 x 1015 km, 82.9° (Epoch: 17 February)

Event Time Altitude Azimuth Distance (km) Brightness Sun altitude
Rises 23:28:26 0° 184° (S) 3,674 8.0 -17.5°
Reaches altitude 10° 23:31:04 10° 177° (S) 2,727 7.1 -17.8°
Maximum altitude 23:37:03 46° 104° (ESE) 1,297 4.5 -18.4°
Enters shadow 23:39:47 29° 51° (NE) 1,704 4.7 -18.7°
